| time (UTC) | temp F | wind direction | speed MPH | gust MPH | rain 1hr in | rain 24hr in | rain mn in | humidity % | barometer mb |
| 20260505041112 | 67 | 343 | 2.0 | 3.0 | 0.00 | 0.00 | 0.00 | 45 | 1003.0 |
| 20260505040053 | 67 | 341 | 1.0 | 3.0 | 0.00 | 0.00 | 0.00 | 45 | 1003.0 |
| 20260505035033 | 67 | 331 | 1.0 | 3.0 | 0.00 | 0.00 | 0.00 | 45 | 1003.1 |
| 20260505034115 | 67 | 142 | 1.0 | 2.0 | 0.00 | 0.00 | 0.00 | 45 | 1003.0 |
| 20260505033055 | 67 | 97 | 1.0 | 2.0 | 0.00 | 0.00 | 0.00 | 45 | 1003.2 |
| 20260505032107 | 67 | 88 | 1.0 | 2.0 | 0.00 | 0.00 | 0.00 | 45 | 1003.3 |
| 20260505031117 | 67 | 91 | 1.0 | 5.0 | 0.00 | 0.00 | 0.00 | 46 | 1003.4 |
| 20260505030057 | 67 | 92 | 1.0 | 2.0 | 0.00 | 0.00 | 0.00 | 46 | 1003.5 |
| 20260505025056 | 68 | 94 | 1.0 | 3.0 | 0.00 | 0.00 | 0.00 | 46 | 1003.5 |
| 20260505024118 | 68 | 105 | 1.0 | 2.0 | 0.00 | 0.00 | 0.00 | 47 | 1003.6 |
| 20260505023149 | 68 | 106 | 1.0 | 5.0 | 0.00 | 0.00 | 0.00 | 45 | 1003.5 |
| 20260505022040 | 68 | 106 | 1.0 | 2.0 | 0.00 | 0.00 | 0.00 | 45 | 1003.6 |
| 20260505021120 | 68 | 106 | 1.0 | 1.0 | 0.00 | 0.00 | 0.00 | 45 | 1003.6 |
| 20260505020029 | 68 | 106 | 1.0 | 2.0 | 0.00 | 0.00 | 0.00 | 45 | 1003.5 |
| 20260505015111 | 69 | 105 | 1.0 | 2.0 | 0.00 | 0.00 | 0.00 | 45 | 1003.4 |
| 20260505014021 | 69 | 106 | 1.0 | 2.0 | 0.00 | 0.00 | 0.00 | 45 | 1003.3 |
| 20260505013031 | 68 | 134 | 0.0 | 2.0 | 0.00 | 0.00 | 0.00 | 46 | 1003.0 |
| 20260505012113 | 69 | 70 | 0.0 | 1.0 | 0.00 | 0.00 | 0.00 | 46 | 1002.8 |
| 20260505011053 | 69 | 70 | 1.0 | 2.0 | 0.00 | 0.00 | 0.00 | 45 | 1002.6 |
| 20260505010033 | 69 | 86 | 2.0 | 3.0 | 0.00 | 0.00 | 0.00 | 44 | 1002.4 |
| 20260505005116 | 69 | 90 | 1.0 | 2.0 | 0.00 | 0.00 | 0.00 | 44 | 1002.2 |
| 20260505004055 | 70 | 91 | 1.0 | 5.0 | 0.00 | 0.00 | 0.00 | 44 | 1002.2 |
| 20260505003055 | 70 | 89 | 2.0 | 5.0 | 0.00 | 0.00 | 0.00 | 44 | 1002.0 |
| 20260505002118 | 70 | 98 | 1.0 | 2.0 | 0.00 | 0.00 | 0.00 | 43 | 1002.1 |
| 20260505001027 | 71 | 131 | 2.0 | 5.0 | 0.00 | 0.00 | 0.00 | 42 | 1002.1 |
| 20260505000109 | 71 | 80 | 2.0 | 5.0 | 0.00 | 0.00 | 0.00 | 41 | 1002.3 |
| 20260504235049 | 71 | 109 | 2.0 | 6.0 | 0.00 | 0.00 | 0.00 | 40 | 1002.4 |
| 20260504234029 | 72 | 69 | 1.0 | 5.0 | 0.00 | 0.00 | 0.00 | 39 | 1002.8 |
| 20260504233110 | 72 | 66 | 2.0 | 5.0 | 0.00 | 0.00 | 0.00 | 39 | 1002.9 |
| 20260504232019 | 72 | 75 | 2.0 | 6.0 | 0.00 | 0.00 | 0.00 | 37 | 1003.0 |
| 20260504231101 | 72 | 90 | 3.0 | 5.0 | 0.00 | 0.00 | 0.00 | 37 | 1003.1 |
| 20260504230041 | 73 | 61 | 4.0 | 8.0 | 0.00 | 0.00 | 0.00 | 36 | 1003.1 |
| 20260504225021 | 73 | 80 | 3.0 | 5.0 | 0.00 | 0.00 | 0.00 | 36 | 1003.5 |
| 20260504224103 | 72 | 74 | 2.0 | 3.0 | 0.00 | 0.00 | 0.00 | 39 | 1003.5 |
| 20260504223115 | 73 | 69 | 2.0 | 5.0 | 0.00 | 0.00 | 0.00 | 41 | 1003.4 |
| 20260504222055 | 72 | 66 | 1.0 | 3.0 | 0.00 | 0.00 | 0.00 | 48 | 1003.2 |
| 20260504221055 | 71 | 91 | 1.0 | 2.0 | 0.00 | 0.00 | 0.00 | 50 | 1003.5 |
| 20260504220117 | 71 | 38 | 2.0 | 5.0 | 0.00 | 0.00 | 0.00 | 51 | 1003.6 |
| 20260504215057 | 71 | 351 | 2.0 | 6.0 | 0.00 | 0.00 | 0.00 | 52 | 1003.6 |
| 20260504214037 | 70 | 11 | 2.0 | 7.0 | 0.00 | 0.00 | 0.00 | 52 | 1003.8 |
| 20260504213119 | 70 | 350 | 1.0 | 3.0 | 0.00 | 0.00 | 0.00 | 53 | 1003.9 |
| 20260504212059 | 70 | 22 | 3.0 | 5.0 | 0.00 | 0.00 | 0.00 | 53 | 1003.9 |
| 20260504211038 | 68 | 353 | 2.0 | 5.0 | 0.00 | 0.00 | 0.00 | 57 | 1004.2 |
| 20260504210049 | 67 | 350 | 1.0 | 3.0 | 0.00 | 0.00 | 0.00 | 62 | 1004.5 |
| 20260504205029 | 65 | 63 | 1.0 | 5.0 | 0.00 | 0.00 | 0.00 | 65 | 1004.7 |
| 20260504204111 | 65 | 63 | 2.0 | 3.0 | 0.00 | 0.00 | 0.00 | 66 | 1004.6 |
| 20260504203051 | 64 | 165 | 1.0 | 3.0 | 0.00 | 0.00 | 0.00 | 67 | 1004.9 |
| 20260504202031 | 64 | 72 | 2.0 | 5.0 | 0.00 | 0.00 | 0.00 | 65 | 1004.8 |
| 20260504201113 | 65 | 30 | 2.0 | 3.0 | 0.00 | 0.00 | 0.00 | 64 | 1004.5 |
| 20260504200023 | 64 | 72 | 2.0 | 3.0 | 0.00 | 0.00 | 0.00 | 65 | 1005.3 |
| 20260504195104 | 64 | 5 | 3.0 | 6.0 | 0.00 | 0.00 | 0.00 | 61 | 1004.9 |
| 20260504194045 | 65 | 104 | 2.0 | 6.0 | 0.00 | 0.00 | 0.00 | 56 | 1005.5 |
| 20260504193025 | 64 | 87 | 0.0 | 1.0 | 0.00 | 0.00 | 0.00 | 59 | 1004.8 |
| 20260504192107 | 64 | 87 | 1.0 | 2.0 | 0.00 | 0.00 | 0.00 | 59 | 1005.2 |
| 20260504191047 | 65 | 87 | 2.0 | 5.0 | 0.00 | 0.00 | 0.00 | 55 | 1005.2 |
| 20260504190027 | 66 | 114 | 2.0 | 5.0 | 0.00 | 0.00 | 0.00 | 51 | 1005.4 |
| 20260504185109 | 66 | 117 | 1.0 | 2.0 | 0.00 | 0.00 | 0.00 | 52 | 1005.7 |
| 20260504184049 | 66 | 107 | 2.0 | 3.0 | 0.00 | 0.00 | 0.00 | 53 | 1005.7 |
| 20260504183028 | 67 | 83 | 2.0 | 6.0 | 0.00 | 0.00 | 0.00 | 53 | 1005.8 |
| 20260504182130 | 67 | 78 | 1.0 | 5.0 | 0.00 | 0.00 | 0.00 | 52 | 1006.2 |
| 20260504181051 | 68 | 83 | 2.0 | 5.0 | 0.00 | 0.00 | 0.00 | 50 | 1006.2 |
| 20260504180030 | 68 | 101 | 2.0 | 3.0 | 0.00 | 0.00 | 0.00 | 50 | 1006.0 |
| 20260504175112 | 69 | 97 | 2.0 | 5.0 | 0.00 | 0.00 | 0.00 | 49 | 1005.7 |
| 20260504174053 | 70 | 99 | 3.0 | 9.0 | 0.00 | 0.00 | 0.00 | 47 | 1005.7 |
| 20260504173032 | 70 | 68 | 2.0 | 3.0 | 0.00 | 0.00 | 0.00 | 48 | 1005.7 |
| 20260504172134 | 70 | 39 | 2.0 | 6.0 | 0.00 | 0.00 | 0.00 | 48 | 1005.5 |
| 20260504171055 | 71 | 62 | 2.0 | 6.0 | 0.00 | 0.00 | 0.00 | 47 | 1005.2 |
| 20260504170105 | 69 | 64 | 2.0 | 5.0 | 0.00 | 0.00 | 0.00 | 50 | 1005.6 |
| 20260504151032 | 70 | 142 | 1.0 | 2.0 | 0.00 | 0.00 | 0.00 | 48 | 1006.6 |
| 20260504141106 | 63 | 68 | 2.0 | 3.0 | 0.00 | 0.00 | 0.00 | 59 | 1007.2 |
| 20260504120115 | 51 | 0.0 | 0.0 | 0.00 | 0.00 | 0.00 | 72 | 1007.2 | |
| 20260504090108 | 47 | 0.0 | 0.0 | 0.00 | 0.00 | 0.00 | 72 | 1007.9 | |
| 20260504081028 | 45 | 0.0 | 0.0 | 0.00 | 0.00 | 0.00 | 75 | 1008.1 | |
| 20260504080110 | 45 | 0.0 | 0.0 | 0.00 | 0.00 | 0.00 | 74 | 1008.1 | |
| 20260504060109 | 51 | 0.0 | 0.0 | 0.00 | 0.00 | 0.00 | 62 | 1009.2 |